Regional Weather Roundup
Issued by NWS

Home | Current Version | Previous Version | Text Only | Print | Product List | Glossary On
Versions: 1 2 3 4 5 6 7 8 9 10 11 12 13 14 15 16 17 18 19 20 21 22 23 24 25 26 27 28 29 30 31 32 33 34 35 36 37 38 39 40 41 42 43 44 45 46 47 48 49 50
955
ASUS46 KSEW 210310
RWRWA

WASHINGTON REGIONAL WEATHER ROUNDUP
NATIONAL WEATHER SERVICE SEATTLE WA
700 PM PST MON NOV 20 2017

NOTE:"FAIR" INDICATES FEW OR NO CLOUDS BELOW 12,000 FEET WITH NO
SIGNIFICANT WEATHER AND/OR OBSTRUCTIONS TO VISIBILITY.

WAZ507-509-555>559-210400-
SEATTLE, TACOMA, EVERETT, AND VICINITY

CITY           SKY/WX    TMP DP  RH WIND       PRES   REMARKS
EVERETT        MOCLDY    44  38  79 E5        30.01R
BOEING FIELD   PTCLDY    45  39  79 NE5       30.02R
RENTON         PTCLDY    43  40  89 CALM      30.01R
SEATAC AIRPORT PTCLDY    43  40  89 NE7       30.00R
JBLM-MCCHORD   PTCLDY    36  36 100 CALM      30.00R
PUYALLUP       MOCLDY    39  39 100 CALM      30.00R
BREMERTON      PTCLDY    41  39  93 NE7       30.00R
JBLM-FT LEWIS  PTCLDY    40  40 100 CALM      29.99R
TACOMA NARROWS PTCLDY    44  38  79 SE3       29.99R
$$

WAZ001-503-506-510-514-515-210400-
NORTH INTERIOR

CITY           SKY/WX    TMP DP  RH WIND       PRES   REMARKS
BELLINGHAM     CLEAR     42  41  96 CALM      29.98R
FRIDAY HARBOR  CLEAR     38  38 100 W5        29.99R
EASTSOUND      CLEAR     39  39 100 CALM      29.99R
PORT ANGELES   PTCLDY    37  35  92 SW5       29.99R
EDIZ HOOK      FAIR      43  39  84 CALM      30.00R
PORT TOWNSEND  CLOUDY    45  43  93 CALM      30.01R
NAS WHIDBEY    MOCLDY    45  36  70 E7        30.04R
ARLINGTON      CLOUDY    43  40  89 S5        30.02R
BURLINGTON     CLOUDY    45  39  81 SE3       30.00R
$$

WAZ020-022-039-040-504-511-512-210400-
SOUTHWEST INTERIOR

CITY           SKY/WX    TMP DP  RH WIND       PRES   REMARKS
SHELTON        PTCLDY    37  35  92 CALM      29.98R
OLYMPIA        PTCLDY    36  35  96 CALM      29.99R
CHEHALIS       FAIR      39  39 100 CALM      30.00R FOG
KELSO          PTCLDY    43  41  93 CALM      29.99R
VANCOUVER      PTCLDY    46  46 100 CALM      29.97R
SCAPPOOSE, OR  PTCLDY    43  42  97 W5        29.98R
PORTLAND, OR   MOCLDY    49  46  90 CALM      29.98R
$$

WAZ021-516-517-210400-
WASHINGTON COAST

CITY           SKY/WX    TMP DP  RH WIND       PRES   REMARKS
FORKS          CLEAR     40  39  97 E5        29.98R
HOQUIAM        MOCLDY    42  39  89 NE7       29.98R
ASTORIA, OR    MOCLDY    44  42  93 CALM      29.96R
$$

WAZ019-023-024-040-567>569-210400-
CASCADE MOUNTAINS AND COLUMBIA GORGE

CITY           SKY/WX    TMP DP  RH WIND       PRES   REMARKS
STAMPEDE PASS  MOCLDY    32  28  85 VRB7      29.91R
TROUTDALE, OR  PTCLDY    46  44  93 E3        29.97S FOG
HOOD RIVER, OR PTCLDY    46  43  87 W7        29.97R
THE DALLES, OR PTCLDY    49  42  77 CALM      29.96R
$$

WAZ026-027-041>044-520-521-210400-
EAST SLOPES

CITY           SKY/WX    TMP DP  RH WIND       PRES   REMARKS
OMAK           CLOUDY    39  38  96 NE7       29.93R
WENATCHEE      PTCLDY    39  35  86 E8        29.91R
ELLENSBURG     MOCLDY    40  33  76 NW12      29.93R
YAKIMA         MOCLDY    47  33  58 W7        29.94R
SUNNYSIDE ARPT CLOUDY    40  36  83 E6        29.94R
YAKIMA TC      FAIR      42  33  70 CALM      29.92R
$$

WAZ028-034-035-210400-
COLUMBIA BASIN

CITY           SKY/WX    TMP DP  RH WIND       PRES   REMARKS
EPHRATA        PTCLDY    43  33  68 SE5       29.90R
MOSES LAKE     CLEAR     39  37  92 NE5       29.90R
PASCO          MOCLDY    47  38  71 W8        29.95R
RICHLAND ARPT  CLOUDY    49  39  67 SE5       29.96R
HERMISTON, OR  MOCLDY    48  41  76 SW13      29.96R
$$

WAZ036>038-210400-
NORTHEAST WASHINGTON

CITY           SKY/WX    TMP DP  RH WIND       PRES   REMARKS
SPOKANE GEIGER MOCLDY    40  39  97 SW12      29.89R
SPOKANE FELTS  CLOUDY    44  39  82 SW12      29.90R
FAIRCHILD AFB  NOT AVBL
COEURDALENE,ID CLOUDY    42  39  89 SW8       29.89R
DEER PARK      CLOUDY    40  39  97 CALM      29.88R
$$

WAZ029>033-210400-
SOUTHEAST WASHINGTON

CITY           SKY/WX    TMP DP  RH WIND       PRES   REMARKS
PULLMAN        PTCLDY    44  38  79 W12G22    29.94R
LEWISTON, ID   CLEAR     44  41  89 CALM      29.94R
WALLA WALLA    LGT RAIN  49  40  71 S13       29.97R
PENDLETON, OR  CLOUDY    47  37  68 SW10      29.96R
$$




USA.gov is the U.S. government's official web portal to all federal, state and local government web resources and services.